Showing default

GCOM W1, 38337

Orbit data source: Space-Track

GCOM W1, 38337 is a payload satellite owned by JAXA (JP) in SSO that was launched on Thu, 17 May 2012 UTC via an H-IIA 202 launch vehicle from the Tanegashima Space Center (TNSTA). Payload-class satellites include a variety of spacecraft equipped with specific instruments for various scientific and technological missions. These include communications satellites like Starlink; space stations such as the ISS; scientific satellites like the Hubble; Earth observation satellites from companies like Planet Labs, Umbra, and HawkEye 360; GPS; miniature CubeSats for education and research; and military/defense satellites.

Loading next visibility...
Identifier
38337, 2012-025A
Orbit
SSO
Country
Flag of JPJP / JPN
Related business
Manufacturer
NECTF?
Mission
Operational Civil Science
Bus & Motor
GCOM, AOCS
Mass
1,991 kg wet, 1,841 kg dry
Launch date (UTC)
2012-05-17 (14 years ago)
Launch vehicle
H-IIA 202
Launch site
Tanegashima Space Center (TNSTA)
Object type
Payload
Rocket body
Debris
Shape & HBR
Box + 2 Pan + 1 Dish, 8.8 m
Radar Cross Section
35.969 m², Large (>1 m²)

Expand to show TLE details & history
Last TLE update: 14 hours ago

TLE from 14 hours ago
0 GCOM W1
1 38337U 12025A   25346.79940932  .00001146  00000-0  26434-3 0  9991
2 38337  98.2215 285.0061 0001417  68.8777 344.5409 14.57125895721894
Epoch: 2025-12-12T19:11Z
TLE epoch observation values (Epoch: 2025-12-12T19:11:08.965Z)
Latitude
52.73043°
Longitude
-95.40299°
Altitude
710.089 km
Speed
7.506 km/s
True Right ascension
18h 16m 28s
True Declination
52° 33' 48"
Sunlit
Object was in daylight at epoch
Visualization orbit readout
Latitude
Unknown
Longitude
Unknown
Altitude
Unknown
Speed
Unknown
Apparent Right ascension
Unknown
Apparent Declination
Unknown
Sunlit
N/A
Visualization observer readout
Local Sidereal Time
07:33:28
Azimuth
Unknown
Elevation
Unknown
Doppler factor
Unknown
Orbital elements
Apogee altitude
700.558 km
Perigee altitude
698.553 km
Semi-major axis
7,077.692 km
Eccentricity
0.00014
Inclination
98.2215°
RAAN
285.0061°
Arg. of periapsis
68.8777°
True anomaly
344.53657°
Mean anomaly
344.5409°
Eccentric anomaly
344.53874°
Mean motion
3.64507 °/min
Orbital period
98.76 mins
BSTAR
0.00026434
Loading maneuver chart data...
Computing Atmospheric mass density...

Documentation

Showing up to 5 results
|